Terminal Aerodrome Forecast
Issued by NWS Duluth, MN

Home | Current Version | Previous Version | Text Only | Print | Product List | Glossary On
Versions: 1 2 3 4 5 6 7 8 9 10 11 12 13 14 15 16 17 18 19 20
000
FTUS43 KDLH 252100 AAB
TAFDLH
TAF AMD
KDLH 252146Z 2522/2618 14006KT P6SM FEW009 OVC023
      TEMPO 2600/2602 5SM -TSRA BR BKN018CB BKN050
     FM260300 VRB03KT 5SM BR SCT015 BKN035
      TEMPO 2605/2609 1SM BR BKN007
     FM261000 28006KT 6SM BR FEW010
     FM261300 27009KT P6SM SKC=

USA.gov is the U.S. government's official web portal to all federal, state and local government web resources and services.